{"data":{"norad_id":66036,"intl_designator":"2025-233D","name":"QIANFAN-94","alt_names":[],"object_type":"PAYLOAD","status":"ACTIVE","operator":null,"country":"PRC","launch_date":"2025-10-17","launch_site_code":"TAISC","launch_vehicle":null,"mission":null,"orbit_class":"UNKNOWN","rcs_meters":null,"size_class":null,"mass_kg":null,"dimensions":null,"purposes":[],"wikipedia_slug":null,"has_3d_model":false,"image_url":null,"decayed_at":null,"tle_current":{"epoch":"2026-05-25T02:29:30.530976Z","epoch_age_seconds":59245,"freshness":"FRESH","line1":"1 66036U 25233D   26145.10382559  .00000121  00000+0  16932-3 0  9994","line2":"2 66036  89.0026  45.4469 0002100  73.5460 286.5922 13.51006136 30113","mean_motion":13.51006136,"eccentricity":0.00021,"inclination_deg":89.0026,"raan_deg":45.4469,"arg_perigee_deg":73.546,"mean_anomaly_deg":286.5922,"bstar":0.00016932,"rev_number":3011,"period_min":106.58722870523,"perigee_km":1066.995231388,"apogee_km":1070.1228437238,"semimajor_km":7446.6960375559,"source":"CELESTRAK","updated_at":"2026-05-25T13:38:05.919538Z"}}}